Regional Weather Roundup
Issued by NWS

Home | Current Version | Previous Version | Text Only | Print | Product List | Glossary On
Versions: 1 2 3 4 5 6 7 8 9 10 11 12 13 14 15 16 17 18 19 20 21 22 23 24 25 26 27 28 29 30 31 32 33 34 35 36 37 38 39 40 41 42 43 44 45 46 47 48 49 50
000
ASUS43 KDTX 282210
RWRMI
MICHIGAN HOURLY REGIONAL WEATHER ROUNDUP
NATIONAL WEATHER SERVICE DETROIT/PONTIAC MI
600 PM EDT SAT MAR 28 2015

NOTE: "FAIR" INDICATES FEW OR NO CLOUDS BELOW 12,000 FEET WITH NO
SIGNIFICANT WEATHER AND/OR OBSTRUCTION TO VISIBILITY.

MIZ047>049-052>055-059>063-066>070-074>076-081>083-282300-
SOUTHEAST LOWER MICHIGAN

CITY           SKY/WX    TMP DP  RH WIND       PRES   REMARKS
ADRIAN         SUNNY     36   6  28 CALM      30.26S
ALMA           SUNNY     37   2  23 NW7       30.25F WCI  32
ANN ARBOR      SUNNY     36   4  26 N6        30.25R WCI  31
BAD AXE        SUNNY     32   9  39 W5        30.25F WCI  27
CARO           SUNNY     32   6  32 CALM      30.25F
DETROIT CITY   MOSUNNY   38  11  32 VRB7      30.25S WCI  33
DETROIT        MOSUNNY   37   7  28 W8        30.26R WCI  31
FLINT          SUNNY     36   5  27 W9        30.26S WCI  29
GROSSE ILE     SUNNY     30  16  55 S12       30.25R WCI  21
HILLSDALE      SUNNY     35   3  26 N5        30.24S WCI  31
HOWELL         SUNNY     34   7  32 W8        30.24S WCI  27

CITY           SKY/WX    TMP DP  RH WIND       PRES   REMARKS
JACKSON        SUNNY     34   4  28 VRB3      30.24S
LAMBERTVILLE   SUNNY     36  10  35 W8        30.26S WCI  29
LANSING        SUNNY     35   3  26 N3        30.26F
LAPEER         FAIR      33   8  36 NW7       30.25R WCI  26
MASON          SUNNY     34   4  28 CALM      30.25S
MONROE         SUNNY     34  16  47 S10G17    30.24S WCI  26
MT. CLEMENS    MOSUNNY   34  11  38 N8        30.23R WCI  27
PONTIAC        MOSUNNY   34   3  27 VRB6      30.23R WCI  29
PORT HOPE        N/A     28  12  51 N3        30.24F
PORT HURON     SUNNY     30  18  59 NE8       30.26R WCI  23
TRI CITIES     SUNNY     36   7  29 SW7       30.25S WCI  30
TROY           SUNNY     36   6  29 NW3       30.26R
SAGINAW HB     SUNNY     36   9  32 SW10      30.25S WCI  28
$$
MIZ043>046-050>051-056>058-064>065-071>073-077>080-282300-
SOUTHWEST LOWER MICHIGAN

CITY           SKY/WX    TMP DP  RH WIND       PRES   REMARKS
BATTLE CREEK   SUNNY     37   2  22 CALM      30.26S
BENTON HARBOR  SUNNY     27  12  53 NW8       30.31F WCI  19
BIG RAPIDS     SUNNY     37  -2  19 W7        30.22S WCI  32
COLDWATER      SUNNY     35   2  25 W6        30.25F WCI  30
FREMONT        FAIR      35   5  29 NW12      30.27R WCI  26
HOLLAND        SUNNY     30   9  41 NW6       30.31S WCI  24
GRAND RAPIDS   SUNNY     36   4  26 W5        30.27S WCI  32
IONIA          FAIR      37  -1  20 W6        30.25S WCI  33
KALAMAZOO      SUNNY     38   1  21 W8        30.26S WCI  32
LUDINGTON      SUNNY     31  16  54 W6        30.30S WCI  25
MARSHALL       SUNNY     35   2  24 W5        30.25S WCI  31
MOUNT PLEASANT SUNNY     38   4  24 NW7       30.24R WCI  33
MUSKEGON       SUNNY     30   9  41 W8        30.31S WCI  22
SOUTH HAVEN    SUNNY     30  11  45 NW9       30.31S WCI  21
$$
MIZ016>042-282300-
NORTHERN LOWER MICHIGAN

CITY           SKY/WX    TMP DP  RH WIND       PRES   REMARKS
ALPENA         SUNNY     36  11  35 CALM      30.22S
BEAVER ISLAND  SUNNY     28  17  63 SW9       30.25S WCI  19
BELLAIRE       SUNNY     31   4  31 CALM      30.26F
CADILLAC       SUNNY     35   0  22 SW6       30.20S WCI  30
CHARLEVOIX     SUNNY     29   7  38 W7        30.28F WCI  22
FRANKFORT      SUNNY     32  10  39 W6        30.27F WCI  27
GAYLORD        SUNNY     29   1  30 W8        30.20S WCI  21
GRAYLING       SUNNY     34  -1  23 NW6       30.21S WCI  28
HARBOR SPRINGS SUNNY     24  14  63 SW9       30.25F WCI  15
HOUGHTON LAKE  SUNNY     36   3  25 W8        30.21S WCI  30
MANISTEE       SUNNY     28  10  47 W7        30.29F WCI  21
OSCODA         SUNNY     31  13  47 S8        30.23S WCI  24
PELLSTON       SUNNY     30   3  31 W9        30.25S WCI  22
ROGERS CITY    SUNNY     29  17  60 N12       30.24S WCI  20
TRAVERSE CITY  SUNNY     31  12  45 NE8       30.24F WCI  23
$$
MIZ007>008-015-282300-
EASTERN UPPER MICHIGAN

CITY           SKY/WX    TMP DP  RH WIND       PRES   REMARKS
KINROSS        SUNNY     30   9  40 SW9G18    30.20S WCI  22
MACKINAC ISLAN SUNNY     25  16  68 SW13      30.23F WCI  14
NEWBERRY       SUNNY     29  12  49 S13       30.18F WCI  19
S. S. MARIE    SUNNY     32   6  33 CALM      30.19F
MUNISING         N/A     29  19  66 VRB3      30.16F
$$
MIZ004>006-011>014-085-282300-
CENTRAL UPPER MICHIGAN

CITY           SKY/WX    TMP DP  RH WIND       PRES   REMARKS
MANISTIQUE     SUNNY     29  20  70 S14       30.22F WCI  18
ESCANABA       SUNNY     34  16  47 S15       30.19F WCI  24
MENOMINEE      SUNNY     36  16  44 S13       30.20F WCI  27
SAWYER-GWINN   SUNNY     37   5  25 SW9       30.12F WCI  31
$$
MIZ001>003-009>011-084-282300-
WESTERN UPPER MICHIGAN

CITY           SKY/WX    TMP DP  RH WIND       PRES   REMARKS
IRON MOUNTAIN  SUNNY     40   9  28 SW7       30.12F
HOUGHTON       SUNNY     36   8  31 E8        30.08F WCI  30
COPPER HARBOR    N/A     32  16  51 CALM      30.12F
IRONWOOD       SUNNY     41   9  26 S13       30.04F
$$

ABBREVIATIONS USED IN REMARKS
   TC - TEMPERATURE IN CELSIUS
  WCI - WIND CHILL INDEX
   HX - HEAT INDEX
  VSB - VISIBILITY




USA.gov is the U.S. government's official web portal to all federal, state and local government web resources and services.